Regional Weather Roundup
Issued by NWS Austin/San Antonio, TX

Current Version | Previous Version | Text Only | Print | Product List | Glossary On
Versions: 1 2 3 4 5 6 7 8 9 10 11 12 13 14 15 16 17 18 19 20 21 22 23 24 25 26 27 28 29 30 31 32 33 34 35 36 37 38 39 40 41 42 43 44 45 46 47 48 49 50
000
ASUS44 KEWX 231611
RWREWX
SOUTH TEXAS REGIONAL WEATHER ROUNDUP
NATIONAL WEATHER SERVICE AUSTIN/SAN ANTONIO TX
1100 AM CDT FRI OCT 23 2020

NOTE: "FAIR" INDICATED FEW OR NO CLOUDS BELOW 12,000 FEET WITH NO
SIGNIFICANT WEATHER AND/OR OBSTRUCTIONS TO VISIBILITY.

* - THESE STATIONS ARE NOT NWS OR FAA STATIONS...AND ARE NOT SUBJECT
    TO NWS AND FAA QUALITY CONTROL.

TXZ171-172-183>190-231700-
TEXAS HILL COUNTRY AND EDWARDS PLATEAU

CITY           SKY/WX    TMP DP  RH WIND       PRES   REMARKS
JUNCTION       PTSUNNY   76  68  76 N3        30.07R
*LLANO         PTSUNNY   75  70  83 E3        30.05S
BURNET         CLOUDY    75  70  84 NE3       30.09R
*HORSESHOE BAY LGT RAIN  75  70  83 CALM      30.07R
*LAGO VISTA    CLOUDY    76  69  78 CALM      30.07R
*KERRVILLE     HVY RAIN  72  68  87 CALM      30.06R
*FREDERICKSBRG RAIN      71  69  94 CALM      30.08R
*ROCKSPRINGS   CLOUDY    72  68  88 S10       30.08R
*BOERNE        CLOUDY    72  72 100 CALM      30.05R
*CASTROVILLE   CLOUDY    80  70  70 SW5       30.02R
HONDO          CLOUDY    78  69  73 S5        30.00R
*UVALDE        CLOUDY    77  70  78 S7        30.02R
DEL RIO        CLOUDY    81  70  69 S13       29.96R
*LAUGHLIN AFB  CLOUDY    79  70  73 SE10      29.98R
*SPOFFORD      CLOUDY   N/A N/A N/A SE9       29.92S
*EAGLE PASS    NOT AVBL
CARRIZO SPRGS  PTSUNNY   81  70  69 S8        29.95S
*FAITH RANCH   MOSUNNY   82  70  65 S9        29.98R
$$

TXZ173-191>194-202-209-217>225-228-231700-
CENTRAL AND SOUTH CENTRAL TEXAS

CITY           SKY/WX    TMP DP  RH WIND       PRES   REMARKS
GEORGETOWN     PTSUNNY   76  73  91 E5        30.07R
*TAYLOR        CLOUDY    77  72  82 CALM      30.04R
AUSTIN/BERGSTM CLOUDY    79  72  79 CALM      30.03R
AUSTIN/MABRY   CLOUDY    79  70  74 CALM      30.05R
*PFLUGERVILLE  LGT RAIN  77  72  83 CALM      30.05R
SAN MARCOS     CLOUDY    79  72  79 S5        30.03R
NEW BRAUNFELS  CLOUDY    80  71  74 S3        30.00R
*RANDOLPH AFB  CLOUDY    78  71  76 S3        30.00S
*SEGUIN        CLOUDY    78  72  81 CALM      30.04R
SAN ANTONIO    CLOUDY    78  69  73 SE5       30.01R
STINSON FIELD  CLOUDY    77  70  79 CALM      29.98R
*KELLY FIELD   CLOUDY    79  70  75 E3        29.99R
*PLEASANTON    CLOUDY    81  73  76 CALM      29.99R
*KENEDY        PTSUNNY   81  72  75 CALM      29.99R
*LA GRANGE     MOSUNNY   83  75  78 SE6       29.98S HX  90
*GIDDINGS      PTSUNNY   82  72  73 S3        30.02R
*GONZALES      CLOUDY    80  72  75 S3        29.99S
$$

TXZ163>164-176>182-195>201-210>213-226-227-235-231700-
SOUTHEAST TEXAS

CITY           SKY/WX    TMP DP  RH WIND       PRES   REMARKS
COLLEGE STN    PTSUNNY   79  73  82 CALM      30.03R
*BRYAN         CLOUDY    79  73  82 CALM      30.05R
*CALDWELL      CLOUDY    79  75  88 CALM      30.04R
*CROCKETT      NOT AVBL
*BRENHAM       PTSUNNY   81  76  83 CALM      30.01R
HUNTSVILLE     PTSUNNY   82  72  71 VRB3      30.02R
CONROE         CLOUDY    81  73  76 SE6       30.01R
HOUSTON BUSH   MOSUNNY   81  74  79 E6        29.99S
HOUSTON HOBBY  MOSUNNY   84  72  67 CALM      29.97S
*HOUSTON SW AP PTSUNNY   80  75  86 CALM      29.98F
PEARLAND       PTSUNNY   83  71  67 CALM      29.99S
HOUSTON HOOKS  PTSUNNY   81  71  71 CALM      30.00R
ELLINGTON FLD  PTSUNNY   84  75  74 SE5       29.97S HX  92
SUGAR LAND     CLOUDY    84  74  71 CALM      29.98S HX  91
*HOUSTON EXEC  PTSUNNY   82  75  78 SW5       30.00S
*CLEVELAND MUN CLOUDY    77  75  93 CALM      30.02R FOG
*WHARTON       CLOUDY    77  76  97 CALM      30.00R
*COLUMBUS      NOT AVBL
*EAGLE LAKE    CLOUDY    78  76  93 CALM      29.99S
$$

TXZ214>216-236>238-231700-
THE UPPER TEXAS COAST

CITY           SKY/WX    TMP DP  RH WIND       PRES   REMARKS
*ORANGE        CLOUDY    79  74  85 E6        30.03R
PORT ARTHUR    PTSUNNY   80  75  84 E7        29.99R
GALVESTON      MOSUNNY   84  73  69 VRB5      29.98R HX  90
ANGLETON       PTSUNNY   86  75  69 CALM      29.97S HX  95
*BAY CITY      SUNNY     81  75  80 CALM      29.98R
PALACIOS       PTSUNNY   83  75  77 CALM      29.97R HX  90
$$

TXZ229>234-239>247-231700-
TEXAS COASTAL BEND AND RIO GRANDE PLAINS

CITY           SKY/WX    TMP DP  RH WIND       PRES   REMARKS
VICTORIA       PTSUNNY   83  74  74 VRB3      29.99R
*BEEVILLE      NOT AVBL
ROCKPORT       MOSUNNY   85  76  74 SE8       29.95R HX  94
*PORT ARANSAS  MOSUNNY   82  76  81 E6        29.97R
*PORT LAVACA   SUNNY     82  73  74 E5        29.98R
*INGLESIDE     PTSUNNY   85  79  82 SW3       29.95R HX  96
CORPUS CHRISTI MOSUNNY   82  77  83 SW6       29.95R HX  91
CORPUS NAS     MOSUNNY   86  74  67 SE7       29.94R HX  94
*ROBSTOWN      PTSUNNY   82  74  75 SW3       29.96R
ALICE          PTSUNNY   82  75  79 SW7       29.95R
KINGSVILLE NAS MOSUNNY   83  75  77 S7        29.95R HX  90
COTULLA        CLOUDY    82  70  66 S7        29.97R
LAREDO         MOSUNNY   84  73  70 S7        29.96R HX  91
$$

TXZ248>255-231700-
DEEP SOUTH TEXAS

CITY           SKY/WX    TMP DP  RH WIND       PRES   REMARKS
BROWNSVILLE    PTSUNNY   87  75  67 SW10      29.92R HX  96
PORT ISABEL    MOSUNNY   85  75  72 SE5       29.92S HX  93
HARLINGEN      MOSUNNY   83  76  79 SW9       29.93R HX  91
*HEBBRONVILLE  CLOUDY    81  70  68 SW9       29.98S
MCALLEN        SUNNY     82  74  76 SE7       29.93S
*WESLACO       CLOUDY    88  73  60 S9        29.93R HX  94
FALFURRIAS     PTSUNNY   79  74  84 SE8       29.95R
EDINBURG       PTSUNNY   74  64  71 S7        29.95R
*ZAPATA        MOSUNNY   88  72  60 S8        29.96R HX  94
$$

TXZ213>215-236>238-242>244-246-247-251-254-255-231700-
CMAN STATIONS

STATION/POSITION TIME  TEMP    WIND        PRES    WAVE
                       AIR SEA DIR/SP/G            HT/PER
                 (UTC) (F)     (DEG/KT/KT) (MB)    (FT/S)
NORTH JETTY/GLS  1524   83 78   90/  4/  5 1013.9
EAGLE POINT      1524   79 80   70/  6/  6 1014.5
MORGANS POINT    1524   79 80  100/  6/  8 1015.1
PORT O`CONNOR    1530   81 83  130/  4/  5 1014.2
PORT ARANSAS     1600   80 80   90/  4/  5 1014.5
MALAQUITE BEACH  1530   84     110/  4/  5   N/A
BAFFIN BAY       1530   81 83  140/  4/  5 1013.4
PORT ISABEL      1530   83 82  140/  5/  7 1015.1
$$




USA.gov is the U.S. government's official web portal to all federal, state and local government web resources and services.